Delaware, OH

11:42 AM EDT on September 22, 2017 (GMT -0400)
Delaware Municipal

Weather History for KDLZ - January, 2014

Change the Weather History Date:

Monday, January 20, 2014

  Actual Average Record
Temperature  
Mean Temperature 28 °F -  
Max Temperature 33 °F 33 °F 59 °F (1951)
Min Temperature 23 °F 14 °F -18 °F (1985)
Degree Days  
Heating Degree Days 37    
Moisture  
Dew Point 25 °F    
Average Humidity 81    
Maximum Humidity 100    
Minimum Humidity 65    
Precipitation  
Precipitation 0.00 in - - ()
Sea Level Pressure  
Sea Level Pressure 29.79 in    
Wind  
Wind Speed 9 mph (WSW)    
Max Wind Speed 16 mph    
Max Gust Speed 23 mph    
Visibility 10 miles    
Events      
Averages and records for this station are not official NWS values.
T = Trace of Precipitation, MM = Missing Value Source: NWS Daily Summary

Daily Weather History Graph

Daily Weather History Graph

Search for Another Location

Airport or City:

Trip Planner

Search our weather history database for the weather conditions in past years. The results will help you decide how hot, cold, wet, or windy it might be!

Date:

Astronomy

Jan. 20, 2014 Rise Set
Actual Time 7:50 AM EST 5:36 PM EST
Civil Twilight 7:21 AM EST 6:06 PM EST
Nautical Twilight 6:47 AM EST 6:39 PM EST
Astronomical Twilight 6:15 AM EST 7:11 PM EST
Moon 10:11 PM EST (1/20) 9:49 AM EST (1/20)
Length of Visible Light 10h 45m
Length of Day
9h 45m
Waning Gibbous, 83% of the Moon is Illuminated
Jan 20
Waning Gibbous
Jan 24
Last Quarter
Jan 30
New
Feb 6
First Quarter
Feb 14
Full

Hourly Weather History & Observations

Time (EST) Temp. Windchill Dew Point Humidity Pressure Visibility Wind Dir Wind Speed Gust Speed Precip Events Conditions
12:14 AM 30.2 °F 19.8 °F 23.0 °F 75% 29.66 in 10.0 mi SSW 13.8 mph 20.7 mph N/A   Clear
12:35 AM 30.2 °F 19.8 °F 23.0 °F 75% 29.65 in 10.0 mi SSW 13.8 mph - N/A   Clear
12:55 AM 30.2 °F 19.3 °F 23.0 °F 75% 29.65 in 10.0 mi SSW 15.0 mph 23.0 mph N/A   Clear
1:14 AM 30.2 °F 19.3 °F 23.0 °F 75% 29.64 in 10.0 mi SSW 15.0 mph 20.7 mph N/A   Clear
1:35 AM 30.2 °F 19.8 °F 23.0 °F 75% 29.63 in 10.0 mi SSW 13.8 mph 20.7 mph N/A   Clear
1:55 AM 30.2 °F 20.2 °F 23.0 °F 75% 29.63 in 10.0 mi SSW 12.7 mph - N/A   Clear
2:14 AM 30.2 °F 21.3 °F 23.0 °F 75% 29.63 in 10.0 mi SSW 10.4 mph - N/A   Clear
2:35 AM 30.2 °F 21.9 °F 23.0 °F 75% 29.63 in 10.0 mi SSW 9.2 mph - N/A   Clear
2:55 AM 32.0 °F 23.6 °F 23.0 °F 69% 29.63 in 10.0 mi SSW 10.4 mph - N/A   Clear
3:14 AM 32.0 °F 25.6 °F 23.0 °F 69% 29.63 in 10.0 mi SSW 6.9 mph - N/A   Clear
3:35 AM 30.2 °F 23.4 °F 23.0 °F 75% 29.63 in 10.0 mi SSW 6.9 mph - N/A   Clear
3:55 AM 32.0 °F 24.8 °F 23.0 °F 69% 29.63 in 10.0 mi SSW 8.1 mph - N/A   Clear
4:14 AM 30.2 °F 22.6 °F 23.0 °F 75% 29.64 in 10.0 mi SSW 8.1 mph - N/A   Clear
4:35 AM 32.0 °F 24.8 °F 23.0 °F 69% 29.64 in 10.0 mi SSW 8.1 mph - N/A   Clear
4:55 AM 32.0 °F 23.6 °F 23.0 °F 69% 29.64 in 10.0 mi SW 10.4 mph - N/A   Clear
5:14 AM 32.0 °F 23.6 °F 23.0 °F 69% 29.65 in 10.0 mi SW 10.4 mph - N/A   Clear
5:35 AM 32.0 °F 23.0 °F 23.0 °F 69% 29.65 in 10.0 mi WSW 11.5 mph 16.1 mph N/A   Clear
5:55 AM 32.0 °F 23.6 °F 23.0 °F 69% 29.66 in 10.0 mi WSW 10.4 mph - N/A   Mostly Cloudy
6:14 AM 33.8 °F 25.3 °F 23.0 °F 65% 29.66 in 10.0 mi WSW 11.5 mph 18.4 mph N/A   Overcast
6:35 AM 33.8 °F 25.3 °F 24.8 °F 70% 29.66 in 10.0 mi WSW 11.5 mph - N/A   Overcast
6:55 AM 33.8 °F 26.4 °F 24.8 °F 70% 29.68 in 10.0 mi WSW 9.2 mph 16.1 mph N/A   Overcast
7:14 AM 32.0 °F 24.2 °F 24.8 °F 75% 29.68 in 10.0 mi WSW 9.2 mph - N/A   Overcast
7:35 AM 32.0 °F 24.8 °F 26.6 °F 80% 29.69 in 10.0 mi WSW 8.1 mph - N/A   Overcast
7:55 AM 33.8 °F 27.7 °F 26.6 °F 75% 29.70 in 10.0 mi WSW 6.9 mph - N/A   Overcast
8:14 AM 33.8 °F 27.0 °F 26.6 °F 75% 29.72 in 10.0 mi West 8.1 mph - N/A   Overcast
8:35 AM 33.8 °F 26.4 °F 26.6 °F 75% 29.72 in 10.0 mi West 9.2 mph 16.1 mph N/A   Overcast
8:55 AM 33.8 °F 25.8 °F 28.4 °F 81% 29.74 in 10.0 mi West 10.4 mph - N/A   Overcast
9:14 AM 33.8 °F 24.8 °F 28.4 °F 81% 29.75 in 10.0 mi West 12.7 mph 17.3 mph N/A   Overcast
9:35 AM 33.8 °F 24.3 °F 28.4 °F 81% 29.76 in 10.0 mi West 13.8 mph 17.3 mph N/A   Overcast
9:55 AM 33.8 °F 25.3 °F 28.4 °F 81% 29.77 in 10.0 mi West 11.5 mph 17.3 mph N/A   Overcast
10:14 AM 33.8 °F 25.3 °F 28.4 °F 81% 29.78 in 10.0 mi West 11.5 mph - N/A   Overcast
10:35 AM 33.8 °F 25.3 °F 28.4 °F 81% 29.79 in 10.0 mi West 11.5 mph - N/A   Overcast
10:55 AM 33.8 °F 26.4 °F 28.4 °F 81% 29.80 in 10.0 mi West 9.2 mph - N/A   Overcast
11:14 AM 33.8 °F 25.3 °F 28.4 °F 81% 29.81 in 10.0 mi WNW 11.5 mph 18.4 mph N/A   Overcast
11:35 AM 33.8 °F 24.8 °F 28.4 °F 81% 29.81 in 10.0 mi WNW 12.7 mph - N/A   Overcast
11:55 AM 33.8 °F 26.4 °F 28.4 °F 81% 29.81 in 10.0 mi West 9.2 mph 17.3 mph N/A   Overcast
12:14 PM 33.8 °F 27.0 °F 28.4 °F 81% 29.81 in 10.0 mi West 8.1 mph - N/A   Overcast
12:35 PM 33.8 °F 25.3 °F 28.4 °F 81% 29.81 in 10.0 mi West 11.5 mph - N/A   Overcast
12:55 PM 33.8 °F 25.8 °F 28.4 °F 81% 29.82 in 10.0 mi West 10.4 mph - N/A   Overcast
1:14 PM 33.8 °F 25.8 °F 28.4 °F 81% 29.82 in 10.0 mi West 10.4 mph - N/A   Overcast
1:35 PM 33.8 °F 24.8 °F 28.4 °F 81% 29.82 in 10.0 mi West 12.7 mph - N/A   Overcast
1:55 PM 33.8 °F 27.0 °F 28.4 °F 81% 29.82 in 10.0 mi West 8.1 mph - N/A   Overcast
2:14 PM 33.8 °F 25.3 °F 28.4 °F 81% 29.83 in 10.0 mi WNW 11.5 mph 18.4 mph N/A   Overcast
2:35 PM 32.0 °F 21.2 °F 28.4 °F 87% 29.83 in 10.0 mi NW 16.1 mph - N/A   Overcast
2:55 PM 32.0 °F 24.2 °F 28.4 °F 87% 29.85 in 7.0 mi NNW 9.2 mph - N/A   Overcast
3:14 PM 30.2 °F 20.8 °F 26.6 °F 86% 29.85 in 10.0 mi North 11.5 mph - N/A   Overcast
3:35 PM 30.2 °F 22.6 °F 24.8 °F 80% 29.87 in 10.0 mi North 8.1 mph - N/A   Overcast
3:55 PM 30.2 °F 21.9 °F 24.8 °F 80% 29.88 in 10.0 mi NNW 9.2 mph - N/A   Overcast
4:14 PM 30.2 °F 24.3 °F 24.8 °F 80% 29.88 in 10.0 mi North 5.8 mph - N/A   Overcast
4:35 PM 30.2 °F 25.4 °F 24.8 °F 80% 29.90 in 10.0 mi NNW 4.6 mph - N/A   Overcast
4:55 PM 30.2 °F 26.7 °F 24.8 °F 80% 29.90 in 10.0 mi NNW 3.5 mph - N/A   Overcast
5:14 PM 30.2 °F 25.4 °F 24.8 °F 80% 29.90 in 10.0 mi NW 4.6 mph - N/A   Overcast
5:35 PM 28.4 °F - 23.0 °F 80% 29.91 in 10.0 mi Calm Calm - N/A   Scattered Clouds
5:55 PM 28.4 °F - 23.0 °F 80% 29.91 in 10.0 mi Calm Calm - N/A   Clear
6:14 PM 26.6 °F - 23.0 °F 86% 29.92 in 10.0 mi Calm Calm - N/A   Clear
6:35 PM 26.6 °F - 23.0 °F 86% 29.91 in 10.0 mi Calm Calm - N/A   Clear
6:55 PM 23.0 °F - 21.2 °F 93% 29.91 in 10.0 mi Calm Calm - N/A   Clear
7:14 PM 23.0 °F - 21.2 °F 93% 29.91 in 10.0 mi Calm Calm - N/A   Clear
7:35 PM 23.0 °F - 21.2 °F 93% 29.92 in 10.0 mi Calm Calm - N/A   Scattered Clouds
7:55 PM 23.0 °F - 23.0 °F 100% 29.92 in 10.0 mi Calm Calm - N/A   Overcast
8:14 PM 24.8 °F - 23.0 °F 93% 29.92 in 10.0 mi Calm Calm - N/A   Overcast
8:35 PM 26.6 °F - 23.0 °F 86% 29.92 in 10.0 mi Calm Calm - N/A   Overcast
8:55 PM 26.6 °F - 24.8 °F 93% 29.92 in 10.0 mi Calm Calm - N/A   Overcast
9:14 PM 26.6 °F - 24.8 °F 93% 29.91 in 10.0 mi Calm Calm - N/A   Overcast
9:35 PM 26.6 °F - 24.8 °F 93% 29.91 in 10.0 mi Calm Calm - N/A   Overcast
9:54 PM 26.6 °F - 24.8 °F 93% 29.90 in 10.0 mi Calm Calm - N/A   Overcast
10:15 PM 26.6 °F - 24.8 °F 93% 29.89 in 10.0 mi Calm Calm - N/A   Overcast
10:35 PM 26.6 °F - 24.8 °F 93% 29.89 in 10.0 mi Calm Calm - N/A   Overcast
10:54 PM 26.6 °F 22.6 °F 23.0 °F 86% 29.89 in 7.0 mi East 3.5 mph - N/A   Mostly Cloudy
11:15 PM 26.6 °F 22.6 °F 23.0 °F 86% 29.89 in 7.0 mi East 3.5 mph - N/A   Mostly Cloudy
11:35 PM 26.6 °F 22.6 °F 23.0 °F 86% 29.88 in 7.0 mi East 3.5 mph - N/A   Mostly Cloudy
11:54 PM 26.6 °F - 23.0 °F 86% 29.88 in 10.0 mi Calm Calm - N/A   Overcast